Location: Wanzleben
(52.0609°N, 11.4408°E)
Time: 11:41:43
(UTC+00:00)

Cosmos 1844 Rocket - Pass Details

Date: 18 September 2020
Orbit: 823 x 846 km, 71.0° (Epoch: 30 October)

Event Time Altitude Azimuth Distance (km) Brightness Sun altitude
Rises 17:58:02 0° 152° (SSE) 3,348 5.4 -6.5°
Reaches altitude 10° 18:01:33 10° 129° (SE) 2,424 4.5 -7.0°
Maximum altitude 18:04:28 15° 97° (E) 2,119 4.1 -7.4°
Drops below altitude 10° 18:07:23 10° 65° (ENE) 2,438 4.6 -7.9°
Sets 18:10:55 0° 43° (NE) 3,382 5.5 -8.4°
